Paynesville, MN

9:57 AM CDT on July 22, 2017 (GMT -0500)
Paynesville

Weather History for KPEX - December, 2012

Change the Weather History Date:

Friday, December 28, 2012

  Actual Average (KLJF) Record (KLJF)
Temperature  
Mean Temperature 12 °F -  
Max Temperature 19 °F 23 °F 42 °F (1999)
Min Temperature 4 °F 8 °F -30 °F (1993)
Degree Days  
Heating Degree Days 54    
Moisture  
Dew Point 11 °F    
Average Humidity 90    
Maximum Humidity 94    
Minimum Humidity 84    
Precipitation  
Precipitation 0.00 in - - ()
Sea Level Pressure  
Sea Level Pressure 30.06 in    
Wind  
Wind Speed 1 mph (NW)    
Max Wind Speed 7 mph    
Max Gust Speed -    
Visibility 6 miles    
Events Snow    
Averages and records for this station are not official NWS values.
T = Trace of Precipitation, MM = Missing Value Source: NWS Daily Summary

Daily Weather History Graph

Daily Weather History Graph

Search for Another Location

Airport or City:

Trip Planner

Search our weather history database for the weather conditions in past years. The results will help you decide how hot, cold, wet, or windy it might be!

Date:

Astronomy

Dec. 28, 2012 Rise Set
Actual Time 7:58 AM CST 4:43 PM CST
Civil Twilight 7:24 AM CST 5:17 PM CST
Nautical Twilight 6:46 AM CST 5:55 PM CST
Astronomical Twilight 6:10 AM CST 6:31 PM CST
Moon 5:24 PM CST (12/28) 7:50 AM CST (12/28)
Length of Visible Light 9h 53m
Length of Day
8h 45m
Full, 100% of the Moon is Illuminated
Dec 28
Full
Jan 4
Last Quarter
Jan 11
New
Jan 18
First Quarter
Jan 26
Full

Hourly Weather History & Observations

Time (CST) Temp. Windchill Dew Point Humidity Pressure Visibility Wind Dir Wind Speed Gust Speed Precip Events Conditions
12:13 AM 13.6 °F - 11.7 °F 92% 30.13 in 4.0 mi Calm Calm - N/A Snow Light Snow
12:33 AM 13.5 °F - 11.5 °F 92% 30.12 in 4.0 mi Calm Calm - N/A Snow Light Snow
12:53 AM 13.5 °F - 11.5 °F 92% 30.11 in 2.5 mi Calm Calm - N/A Snow Light Snow
1:13 AM 13.6 °F - 11.8 °F 93% 30.11 in 4.0 mi Calm Calm - N/A Snow Light Snow
1:33 AM 14.2 °F - 12.2 °F 92% 30.11 in 2.5 mi Calm Calm - N/A Snow Light Snow
1:53 AM 14.0 °F - 12.2 °F 93% 30.11 in 3.0 mi Calm Calm - N/A Snow Light Snow
2:13 AM 14.0 °F - 12.2 °F 93% 30.11 in 4.0 mi Calm Calm - N/A Snow Light Snow
2:33 AM 14.4 °F - 12.6 °F 93% 30.11 in 4.0 mi Calm Calm - N/A Snow Light Snow
2:53 AM 14.5 °F - 12.7 °F 93% 30.11 in 4.0 mi Calm Calm - N/A Snow Light Snow
3:13 AM 14.7 °F 9.0 °F 12.9 °F 93% 30.10 in 7.0 mi NNE 3.5 mph - N/A   Overcast
3:34 AM 14.9 °F - 13.1 °F 93% 30.09 in 7.0 mi Calm Calm - N/A   Overcast
3:53 AM 14.9 °F - 13.1 °F 93% 30.09 in 7.0 mi Calm Calm - N/A Snow Light Snow
4:13 AM 14.9 °F - 13.1 °F 93% 30.08 in 5.0 mi Calm Calm - N/A Snow Light Snow
4:34 AM 14.9 °F - 13.1 °F 93% 30.08 in 3.0 mi Calm Calm - N/A Snow Light Snow
5:13 AM 15.3 °F - 13.5 °F 93% 30.07 in 3.0 mi Calm Calm - N/A Snow Light Snow
5:33 AM 14.9 °F 9.2 °F 13.1 °F 93% 30.07 in 4.0 mi NNE 3.5 mph - N/A Snow Light Snow
5:53 AM 14.7 °F - 12.9 °F 93% 30.07 in 4.0 mi Calm Calm - N/A Snow Light Snow
6:13 AM 14.4 °F 8.6 °F 12.2 °F 91% 30.07 in 5.0 mi NNE 3.5 mph - N/A Snow Light Snow
6:33 AM 14.0 °F - 12.0 °F 92% 30.06 in 7.0 mi Calm Calm - N/A Snow Light Snow
6:54 AM 13.6 °F - 11.8 °F 93% 30.06 in 5.0 mi Calm Calm - N/A Snow Light Snow
7:13 AM 13.8 °F - 12.0 °F 93% 30.06 in 5.0 mi Calm Calm - N/A Snow Light Snow
7:33 AM 14.0 °F - 12.2 °F 93% 30.06 in 5.0 mi Calm Calm - N/A Snow Light Snow
7:53 AM 14.4 °F - 12.4 °F 92% 30.06 in 3.0 mi Calm Calm - N/A Snow Light Snow
8:14 AM 14.0 °F 8.2 °F 12.2 °F 93% 30.07 in 2.0 mi NNE 3.5 mph - N/A Snow Light Snow
8:33 AM 14.0 °F - 12.2 °F 93% 30.07 in 3.0 mi Calm Calm - N/A Snow Light Snow
8:53 AM 14.0 °F - 12.2 °F 93% 30.07 in 4.0 mi Calm Calm - N/A Snow Light Snow
9:12 AM 14.0 °F 8.2 °F 12.2 °F 93% 30.07 in 7.0 mi NNE 3.5 mph - N/A   Overcast
9:33 AM 14.7 °F 9.0 °F 12.6 °F 91% 30.07 in 4.0 mi NNE 3.5 mph - N/A Snow Light Snow
9:54 AM 15.3 °F 9.6 °F 13.1 °F 91% 30.07 in 5.0 mi NNE 3.5 mph - N/A Snow Light Snow
10:13 AM 15.8 °F 10.2 °F 13.5 °F 90% 30.08 in 4.0 mi North 3.5 mph - N/A Snow Light Snow
10:33 AM 16.3 °F - 13.5 °F 88% 30.08 in 4.0 mi Calm Calm - N/A Snow Light Snow
10:53 AM 17.2 °F - 13.8 °F 86% 30.07 in 7.0 mi Calm Calm - N/A Snow Light Snow
11:13 AM 18.1 °F - 14.0 °F 84% 30.06 in 7.0 mi Calm Calm - N/A   Overcast
11:33 AM 18.0 °F 12.7 °F 14.2 °F 85% 30.06 in 5.0 mi NNW 3.5 mph - N/A Snow Light Snow
11:53 AM 18.1 °F - 14.5 °F 86% 30.06 in 4.0 mi Calm Calm - N/A Snow Light Snow
12:13 PM 18.5 °F - 14.7 °F 85% 30.05 in 3.0 mi Calm Calm - N/A Snow Light Snow
12:33 PM 19.0 °F - 14.9 °F 84% 30.04 in 2.0 mi Calm Calm - N/A Snow Light Snow
12:53 PM 18.9 °F 12.1 °F 14.9 °F 85% 30.03 in 5.0 mi NNW 4.6 mph - N/A Snow Light Snow
1:13 PM 18.5 °F 10.4 °F 14.7 °F 85% 30.02 in 4.0 mi NNW 5.8 mph - N/A Snow Light Snow
1:34 PM 18.5 °F 10.4 °F 14.9 °F 86% 30.02 in 2.0 mi NW 5.8 mph - N/A Snow Light Snow
1:53 PM 18.9 °F 10.8 °F 14.9 °F 85% 30.02 in 3.0 mi NW 5.8 mph - N/A Snow Light Snow
2:14 PM 18.9 °F 13.7 °F 14.7 °F 84% 30.01 in 7.0 mi NW 3.5 mph - N/A   Scattered Clouds
2:33 PM 18.9 °F 10.8 °F 14.9 °F 85% 30.01 in 7.0 mi NW 5.8 mph - N/A Snow Light Snow
2:53 PM 18.9 °F 13.7 °F 14.9 °F 85% 30.02 in 5.0 mi NW 3.5 mph - N/A Snow Light Snow
3:14 PM 18.1 °F 10.0 °F 14.5 °F 86% 30.02 in 4.0 mi NNW 5.8 mph - N/A Snow Light Snow
3:33 PM 17.6 °F 12.3 °F 14.0 °F 86% 30.02 in 7.0 mi NW 3.5 mph - N/A   Scattered Clouds
3:53 PM 16.7 °F - 13.1 °F 86% 30.02 in 10.0 mi Calm Calm - N/A   Mostly Cloudy
4:33 PM 15.1 °F - 12.7 °F 90% 30.02 in 5.0 mi Calm Calm - N/A Snow Light Snow
4:53 PM 13.5 °F - 11.1 °F 90% 30.02 in 10.0 mi Calm Calm - N/A   Clear
5:13 PM 12.6 °F - 11.1 °F 94% 30.02 in 10.0 mi Calm Calm - N/A   Scattered Clouds
5:54 PM 6.6 °F - 4.1 °F 89% 30.03 in 10.0 mi Calm Calm - N/A   Mostly Cloudy
6:13 PM 8.4 °F - 6.1 °F 90% 30.03 in 10.0 mi Calm Calm - N/A   Overcast
6:34 PM 8.1 °F - 5.7 °F 90% 30.03 in 10.0 mi Calm Calm - N/A   Mostly Cloudy
6:53 PM 6.6 °F - 4.1 °F 89% 30.03 in 10.0 mi Calm Calm - N/A   Scattered Clouds
7:13 PM 4.5 °F - 2.1 °F 90% 30.03 in 10.0 mi Calm Calm - N/A   Clear
7:34 PM 4.8 °F -2.3 °F 2.1 °F 89% 30.04 in 10.0 mi WSW 3.5 mph - N/A   Clear
7:53 PM 4.1 °F -3.2 °F 1.4 °F 89% 30.03 in 10.0 mi WSW 3.5 mph - N/A   Scattered Clouds
8:13 PM 4.5 °F -2.7 °F 1.8 °F 89% 30.03 in 10.0 mi WSW 3.5 mph - N/A   Mostly Cloudy
8:33 PM 6.8 °F - 4.5 °F 90% 30.04 in 10.0 mi Calm Calm - N/A   Overcast
8:53 PM 8.8 °F 0.4 °F 6.8 °F 92% 30.04 in 10.0 mi West 4.6 mph - N/A   Overcast
9:13 PM 9.9 °F 1.6 °F 7.7 °F 91% 30.04 in 10.0 mi West 4.6 mph - N/A   Overcast
9:34 PM 12.6 °F 6.5 °F 10.8 °F 92% 30.04 in 10.0 mi WNW 3.5 mph - N/A Snow Light Snow
9:53 PM 13.1 °F 5.4 °F 11.1 °F 92% 30.04 in 10.0 mi WNW 4.6 mph - N/A Snow Light Snow
10:13 PM 12.6 °F 2.2 °F 10.4 °F 91% 30.04 in 10.0 mi WNW 6.9 mph - N/A   Overcast
10:33 PM 11.5 °F 2.1 °F 9.3 °F 91% 30.04 in 10.0 mi West 5.8 mph - N/A   Overcast
10:53 PM 10.2 °F 2.0 °F 7.7 °F 90% 30.04 in 10.0 mi West 4.6 mph - N/A   Overcast
11:14 PM 9.7 °F 1.4 °F 7.5 °F 91% 30.04 in 10.0 mi West 4.6 mph - N/A   Overcast
11:33 PM 9.5 °F -0.3 °F 7.5 °F 92% 30.04 in 7.0 mi West 5.8 mph - N/A Snow Light Snow
11:54 PM 9.5 °F -0.3 °F 7.5 °F 92% 30.04 in 7.0 mi West 5.8 mph - N/A   Overcast